Weather History for KGRB - May, 2013

Change the Weather History Date:

Tuesday, May 14, 2013

  Actual Average Record
Temperature  
Mean Temperature 59 °F 54 °F  
Max Temperature 72 °F 66 °F 89 °F (1991)
Min Temperature 45 °F 43 °F 29 °F (1895)
Degree Days  
Heating Degree Days 6 11  
Month to date heating degree days 189 181  
Since 1 July heating degree days 7536 7718  
Cooling Degree Days 0 0  
Month to date cooling degree days 0 0  
Year to date cooling degree days 5 2  
Growing Degree Days 8 (Base 50)    
Moisture  
Dew Point 43 °F    
Average Humidity 58    
Maximum Humidity 72    
Minimum Humidity 44    
Precipitation  
Precipitation T in 0.09 in 2.17 in (1957)
Month to date precipitation 2.23 1.18  
Year to date precipitation 12.28 7.90  
Snow  
Snow 0.00 in 0.00 in T in (2005)
Month to date snowfall 0.0 0.1  
Since 1 July snowfall 74.2 51.3  
Snow Depth 0.00 in    
Sea Level Pressure  
Sea Level Pressure 29.71 in    
Wind  
Wind Speed 9 mph (SSE)    
Max Wind Speed 21 mph    
Max Gust Speed 23 mph    
Visibility 10 miles    
Events      
T = Trace of Precipitation, MM = Missing Value Source: NWS Daily Summary

Daily Weather History Graph

Daily Weather History Graph

Search for Another Location

Airport or City:

Trip Planner

Search our weather history database for the weather conditions in past years. The results will help you decide how hot, cold, wet, or windy it might be!

Date:

Astronomy

May. 14, 2013 Rise Set
Actual Time 5:25 AM CDT 8:12 PM CDT
Civil Twilight 4:52 AM CDT 8:46 PM CDT
Nautical Twilight 4:09 AM CDT 9:29 PM CDT
Astronomical Twilight 3:20 AM CDT 10:19 PM CDT
Moon 9:05 AM CDT (5/14) 11:58 PM CDT (5/14)
Length of Visible Light 15h 54m
Length of Day
14h 46m
Waxing Crescent, 19% of the Moon is Illuminated
May 14
Waxing Crescent
May 17
First Quarter
May 24
Full
May 31
Last Quarter
Jun 8
New

Hourly Weather History & Observations

Time (CDT) Temp. Windchill Dew Point Humidity Pressure Visibility Wind Dir Wind Speed Gust Speed Precip Events Conditions
12:53 AM 45.0 °F 39.3 °F 34.0 °F 65% 29.91 in 10.0 mi SSE 11.5 mph - N/A   Mostly Cloudy
1:53 AM 45.0 °F 39.7 °F 33.1 °F 63% 29.86 in 10.0 mi SSE 10.4 mph - N/A   Clear
2:53 AM 48.0 °F - 33.1 °F 56% 29.81 in 10.0 mi SSE 11.5 mph - N/A   Mostly Cloudy
3:53 AM 48.9 °F - 34.0 °F 56% 29.77 in 10.0 mi South 10.4 mph - N/A   Clear
4:53 AM 48.9 °F - 35.1 °F 59% 29.76 in 10.0 mi South 10.4 mph - N/A   Clear
5:53 AM 46.9 °F - 36.0 °F 66% 29.75 in 10.0 mi South 5.8 mph - N/A   Clear
6:53 AM 48.9 °F - 37.9 °F 66% 29.74 in 10.0 mi South 6.9 mph - N/A   Clear
7:53 AM 53.1 °F - 41.0 °F 64% 29.73 in 10.0 mi South 4.6 mph - N/A   Clear
8:53 AM 57.9 °F - 44.1 °F 60% 29.71 in 10.0 mi South 4.6 mph - N/A   Clear
9:53 AM 64.9 °F - 46.0 °F 50% 29.73 in 10.0 mi NNW 5.8 mph - N/A   Clear
10:53 AM 68.0 °F - 48.0 °F 49% 29.74 in 10.0 mi Variable 3.5 mph - N/A   Clear
11:53 AM 70.0 °F - 48.0 °F 46% 29.76 in 10.0 mi WNW 5.8 mph - N/A   Clear
12:53 PM 70.0 °F - 46.9 °F 44% 29.77 in 10.0 mi East 5.8 mph - N/A   Clear
1:53 PM 64.9 °F - 46.9 °F 52% 29.80 in 10.0 mi NE 11.5 mph - N/A   Clear
2:53 PM 69.1 °F - 48.0 °F 47% 29.74 in 10.0 mi East 10.4 mph - N/A   Clear
3:53 PM 70.0 °F - 50.0 °F 49% 29.68 in 10.0 mi SE 8.1 mph - N/A   Clear
4:53 PM 66.0 °F - 53.1 °F 63% 29.64 in 10.0 mi SE 13.8 mph - 0.00 in   Mostly Cloudy
5:53 PM 64.9 °F - 48.0 °F 54% 29.67 in 10.0 mi SSE 15.0 mph - N/A   Clear
6:53 PM 62.1 °F - 46.9 °F 58% 29.63 in 10.0 mi ESE 10.4 mph - N/A   Clear
7:53 PM 59.0 °F - 46.0 °F 62% 29.60 in 9.0 mi ESE 9.2 mph - N/A   Clear
8:53 PM 57.9 °F - 46.9 °F 67% 29.57 in 10.0 mi ESE 6.9 mph - N/A   Clear
9:53 PM 57.9 °F - 48.0 °F 70% 29.56 in 10.0 mi SSE 8.1 mph - N/A   Clear
10:53 PM 57.0 °F - 48.0 °F 72% 29.50 in 10.0 mi South 5.8 mph - N/A   Clear
11:53 PM 57.9 °F - 48.9 °F 72% 29.47 in 10.0 mi South 8.1 mph - N/A   Clear